owner,sensor,date,latitude,longitude,vertical_datum,sea_water_temperature,qcFlag 
WAVCIS,ioos:station:WAVCIS:CSI06:1,2008-04-01T00:00:00Z,28.8667,-90.4833,100.0,22.69,11111222 
WAVCIS,ioos:station:WAVCIS:CSI06:1,2008-04-01T01:00:00Z,28.8667,-90.4833,100.0,21.85,11111222 
WAVCIS,ioos:station:WAVCIS:CSI06:1,2008-04-01T02:00:00Z,28.8667,-90.4833,100.0,24.21,11111222 
WAVCIS,ioos:station:WAVCIS:CSI06:1,2008-04-01T03:00:00Z,28.8667,-90.4833,100.0,22.48,11111222 
WAVCIS,ioos:station:WAVCIS:CSI06:1,2008-04-01T04:00:00Z,28.8667,-90.4833,100.0,20.74,11111222 
WAVCIS,ioos:station:WAVCIS:CSI06:1,2008-04-01T05:00:00Z,28.8667,-90.4833,100.0,20.98,11111222 
WAVCIS,ioos:station:WAVCIS:CSI06:1,2008-04-01T06:00:00Z,28.8667,-90.4833,100.0,21.51,11111222 
WAVCIS,ioos:station:WAVCIS:CSI06:1,2008-04-01T07:00:00Z,28.8667,-90.4833,100.0,23.62,11111222 
WAVCIS,ioos:station:WAVCIS:CSI06:1,2008-04-01T08:00:00Z,28.8667,-90.4833,100.0,23.89,11111222 
WAVCIS,ioos:station:WAVCIS:CSI06:1,2008-04-01T09:00:00Z,28.8667,-90.4833,100.0,26.71,11111222 
WAVCIS,ioos:station:WAVCIS:CSI06:1,2008-04-01T10:00:00Z,28.8667,-90.4833,100.0,26.63,11111222 
WAVCIS,ioos:station:WAVCIS:CSI06:1,2008-04-01T11:00:00Z,28.8667,-90.4833,100.0,23.75,11111222 
WAVCIS,ioos:station:WAVCIS:CSI06:1,2008-04-01T12:00:00Z,28.8667,-90.4833,100.0,20.59,11111222 
WAVCIS,ioos:station:WAVCIS:CSI06:1,2008-04-01T13:00:00Z,28.8667,-90.4833,100.0,20.45,11111222 
WAVCIS,ioos:station:WAVCIS:CSI06:1,2008-04-01T14:00:00Z,28.8667,-90.4833,100.0,22.38,11111222 
WAVCIS,ioos:station:WAVCIS:CSI06:1,2008-04-01T15:00:00Z,28.8667,-90.4833,100.0,23.95,11111222 
WAVCIS,ioos:station:WAVCIS:CSI06:1,2008-04-01T16:00:00Z,28.8667,-90.4833,100.0,21.18,11111222 
WAVCIS,ioos:station:WAVCIS:CSI06:1,2008-04-01T17:00:00Z,28.8667,-90.4833,100.0,19.21,11111222 
WAVCIS,ioos:station:WAVCIS:CSI06:1,2008-04-01T18:00:00Z,28.8667,-90.4833,100.0,22.59,11111222 
WAVCIS,ioos:station:WAVCIS:CSI06:1,2008-04-01T19:00:00Z,28.8667,-90.4833,100.0,23.03,11111222 
WAVCIS,ioos:station:WAVCIS:CSI06:1,2008-04-01T20:00:00Z,28.8667,-90.4833,100.0,21.81,11111222 
WAVCIS,ioos:station:WAVCIS:CSI06:1,2008-04-01T21:00:00Z,28.8667,-90.4833,100.0,21.19,11111222 
WAVCIS,ioos:station:WAVCIS:CSI06:1,2008-04-01T22:00:00Z,28.8667,-90.4833,100.0,17.34,11111222 
WAVCIS,ioos:station:WAVCIS:CSI06:1,2008-04-01T23:00:00Z,28.8667,-90.4833,100.0,22.81,11111222 
WAVCIS,ioos:station:WAVCIS:CSI06:1,2008-04-02T00:00:00Z,28.8667,-90.4833,100.0,24.57,11111222 
WAVCIS,ioos:station:WAVCIS:CSI06:1,2008-04-02T01:00:00Z,28.8667,-90.4833,100.0,20.73,11111222 
WAVCIS,ioos:station:WAVCIS:CSI06:1,2008-04-02T02:00:00Z,28.8667,-90.4833,100.0,22.64,11111222 
WAVCIS,ioos:station:WAVCIS:CSI06:1,2008-04-02T03:00:00Z,28.8667,-90.4833,100.0,24.18,11111222 
WAVCIS,ioos:station:WAVCIS:CSI06:1,2008-04-02T04:00:00Z,28.8667,-90.4833,100.0,21.55,11111222 
WAVCIS,ioos:station:WAVCIS:CSI06:1,2008-04-02T05:00:00Z,28.8667,-90.4833,100.0,28.47,11111222 
WAVCIS,ioos:station:WAVCIS:CSI06:1,2008-04-02T06:00:00Z,28.8667,-90.4833,100.0,26.58,11111222 
WAVCIS,ioos:station:WAVCIS:CSI06:1,2008-04-02T07:00:00Z,28.8667,-90.4833,100.0,22.09,11111222 
WAVCIS,ioos:station:WAVCIS:CSI06:1,2008-04-02T08:00:00Z,28.8667,-90.4833,100.0,22.72,11111222 
WAVCIS,ioos:station:WAVCIS:CSI06:1,2008-04-02T09:00:00Z,28.8667,-90.4833,100.0,24.33,11111222 
WAVCIS,ioos:station:WAVCIS:CSI06:1,2008-04-02T10:00:00Z,28.8667,-90.4833,100.0,22.08,11111222 
WAVCIS,ioos:station:WAVCIS:CSI06:1,2008-04-02T11:00:00Z,28.8667,-90.4833,100.0,28.31,11111222 
WAVCIS,ioos:station:WAVCIS:CSI06:1,2008-04-02T12:00:00Z,28.8667,-90.4833,100.0,22.05,11111222 
WAVCIS,ioos:station:WAVCIS:CSI06:1,2008-04-02T13:00:00Z,28.8667,-90.4833,100.0,19.33,11111222 
WAVCIS,ioos:station:WAVCIS:CSI06:1,2008-04-02T14:00:00Z,28.8667,-90.4833,100.0,19.83,11111222 
WAVCIS,ioos:station:WAVCIS:CSI06:1,2008-04-02T15:00:00Z,28.8667,-90.4833,100.0,19.43,11111222 
WAVCIS,ioos:station:WAVCIS:CSI06:1,2008-04-02T16:00:00Z,28.8667,-90.4833,100.0,29.29,11111222 
WAVCIS,ioos:station:WAVCIS:CSI06:1,2008-04-02T17:00:00Z,28.8667,-90.4833,100.0,30.03,11111222 
WAVCIS,ioos:station:WAVCIS:CSI06:1,2008-04-02T18:00:00Z,28.8667,-90.4833,100.0,23.55,11111222 
WAVCIS,ioos:station:WAVCIS:CSI06:1,2008-04-02T19:00:00Z,28.8667,-90.4833,100.0,25.63,11111222 
WAVCIS,ioos:station:WAVCIS:CSI06:1,2008-04-02T20:00:00Z,28.8667,-90.4833,100.0,20.49,11111222 
WAVCIS,ioos:station:WAVCIS:CSI06:1,2008-04-02T21:00:00Z,28.8667,-90.4833,100.0,16.57,11111222 
WAVCIS,ioos:station:WAVCIS:CSI06:1,2008-04-02T22:00:00Z,28.8667,-90.4833,100.0,21.64,11111222 
WAVCIS,ioos:station:WAVCIS:CSI06:1,2008-04-03T01:00:00Z,28.8667,-90.4833,100.0,23.59,11111222 
WAVCIS,ioos:station:WAVCIS:CSI06:1,2008-04-03T04:00:00Z,28.8667,-90.4833,100.0,23.77,11111222 
WAVCIS,ioos:station:WAVCIS:CSI06:1,2008-04-03T07:00:00Z,28.8667,-90.4833,100.0,24.89,11111222 
WAVCIS,ioos:station:WAVCIS:CSI06:1,2008-04-03T10:00:00Z,28.8667,-90.4833,100.0,27.94,11111222 
WAVCIS,ioos:station:WAVCIS:CSI06:1,2008-04-03T11:00:00Z,28.8667,-90.4833,100.0,27.14,11111222 
WAVCIS,ioos:station:WAVCIS:CSI06:1,2008-04-03T14:00:00Z,28.8667,-90.4833,100.0,26.12,11111222 
WAVCIS,ioos:station:WAVCIS:CSI06:1,2008-04-03T15:00:00Z,28.8667,-90.4833,100.0,27.34,11111222 
WAVCIS,ioos:station:WAVCIS:CSI06:1,2008-04-03T16:00:00Z,28.8667,-90.4833,100.0,25.62,11111222 
WAVCIS,ioos:station:WAVCIS:CSI06:1,2008-04-03T19:00:00Z,28.8667,-90.4833,100.0,22.6,11111222 
WAVCIS,ioos:station:WAVCIS:CSI06:1,2008-04-03T21:00:00Z,28.8667,-90.4833,100.0,22.18,11111222 
WAVCIS,ioos:station:WAVCIS:CSI06:1,2008-04-03T22:00:00Z,28.8667,-90.4833,100.0,25.53,11111222 
WAVCIS,ioos:station:WAVCIS:CSI06:1,2008-04-03T23:00:00Z,28.8667,-90.4833,100.0,22.66,11111222 
WAVCIS,ioos:station:WAVCIS:CSI06:1,2008-04-04T00:00:00Z,28.8667,-90.4833,100.0,25.11,11111222 
WAVCIS,ioos:station:WAVCIS:CSI06:1,2008-04-04T01:00:00Z,28.8667,-90.4833,100.0,24.35,11111222 
WAVCIS,ioos:station:WAVCIS:CSI06:1,2008-04-04T04:00:00Z,28.8667,-90.4833,100.0,20.74,11111222 
WAVCIS,ioos:station:WAVCIS:CSI06:1,2008-04-04T07:00:00Z,28.8667,-90.4833,100.0,18.91,11111222 
WAVCIS,ioos:station:WAVCIS:CSI06:1,2008-04-04T10:00:00Z,28.8667,-90.4833,100.0,19.52,11111222 
WAVCIS,ioos:station:WAVCIS:CSI06:1,2008-04-04T11:00:00Z,28.8667,-90.4833,100.0,19.5,11111222 
WAVCIS,ioos:station:WAVCIS:CSI06:1,2008-04-04T14:00:00Z,28.8667,-90.4833,100.0,14.84,11111222 
WAVCIS,ioos:station:WAVCIS:CSI06:1,2008-04-04T15:00:00Z,28.8667,-90.4833,100.0,10.17,11111222 
WAVCIS,ioos:station:WAVCIS:CSI06:1,2008-04-04T16:00:00Z,28.8667,-90.4833,100.0,11.08,11111222 
WAVCIS,ioos:station:WAVCIS:CSI06:1,2008-04-04T17:00:00Z,28.8667,-90.4833,100.0,10.1,11111222 
WAVCIS,ioos:station:WAVCIS:CSI06:1,2008-04-04T18:00:00Z,28.8667,-90.4833,100.0,14.97,11111222 
WAVCIS,ioos:station:WAVCIS:CSI06:1,2008-04-04T19:00:00Z,28.8667,-90.4833,100.0,9.12,11133222 
WAVCIS,ioos:station:WAVCIS:CSI06:1,2008-04-04T20:00:00Z,28.8667,-90.4833,100.0,25.33,11111222 
WAVCIS,ioos:station:WAVCIS:CSI06:1,2008-04-04T21:00:00Z,28.8667,-90.4833,100.0,22.9,11111222 
WAVCIS,ioos:station:WAVCIS:CSI06:1,2008-04-04T22:00:00Z,28.8667,-90.4833,100.0,13.32,11111222 
WAVCIS,ioos:station:WAVCIS:CSI06:1,2008-04-04T23:00:00Z,28.8667,-90.4833,100.0,13.68,11111222 
WAVCIS,ioos:station:WAVCIS:CSI06:1,2008-04-05T00:00:00Z,28.8667,-90.4833,100.0,17.35,11111222 
WAVCIS,ioos:station:WAVCIS:CSI06:1,2008-04-05T01:00:00Z,28.8667,-90.4833,100.0,16.6,11111222 
WAVCIS,ioos:station:WAVCIS:CSI06:1,2008-04-05T02:00:00Z,28.8667,-90.4833,100.0,19.11,11111222 
WAVCIS,ioos:station:WAVCIS:CSI06:1,2008-04-05T03:00:00Z,28.8667,-90.4833,100.0,13.3,11111222 
WAVCIS,ioos:station:WAVCIS:CSI06:1,2008-04-05T04:00:00Z,28.8667,-90.4833,100.0,10.9,11111222 
WAVCIS,ioos:station:WAVCIS:CSI06:1,2008-04-05T05:00:00Z,28.8667,-90.4833,100.0,17.0,11111222 
WAVCIS,ioos:station:WAVCIS:CSI06:1,2008-04-05T06:00:00Z,28.8667,-90.4833,100.0,30.32,11111222 
WAVCIS,ioos:station:WAVCIS:CSI06:1,2008-04-05T07:00:00Z,28.8667,-90.4833,100.0,32.62,11111222 
WAVCIS,ioos:station:WAVCIS:CSI06:1,2008-04-05T08:00:00Z,28.8667,-90.4833,100.0,22.95,11111222 
WAVCIS,ioos:station:WAVCIS:CSI06:1,2008-04-05T09:00:00Z,28.8667,-90.4833,100.0,24.81,11111222 
WAVCIS,ioos:station:WAVCIS:CSI06:1,2008-04-05T10:00:00Z,28.8667,-90.4833,100.0,22.09,11111222 
WAVCIS,ioos:station:WAVCIS:CSI06:1,2008-04-05T11:00:00Z,28.8667,-90.4833,100.0,21.18,11111222 
WAVCIS,ioos:station:WAVCIS:CSI06:1,2008-04-05T12:00:00Z,28.8667,-90.4833,100.0,21.53,11111222 
WAVCIS,ioos:station:WAVCIS:CSI06:1,2008-04-05T13:00:00Z,28.8667,-90.4833,100.0,22.99,11111222 
WAVCIS,ioos:station:WAVCIS:CSI06:1,2008-04-05T14:00:00Z,28.8667,-90.4833,100.0,22.81,11111222 
WAVCIS,ioos:station:WAVCIS:CSI06:1,2008-04-05T15:00:00Z,28.8667,-90.4833,100.0,23.46,11111222 
WAVCIS,ioos:station:WAVCIS:CSI06:1,2008-04-05T16:00:00Z,28.8667,-90.4833,100.0,21.87,11111222 
WAVCIS,ioos:station:WAVCIS:CSI06:1,2008-04-05T17:00:00Z,28.8667,-90.4833,100.0,23.13,11111222 
WAVCIS,ioos:station:WAVCIS:CSI06:1,2008-04-05T18:00:00Z,28.8667,-90.4833,100.0,22.74,11111222 
WAVCIS,ioos:station:WAVCIS:CSI06:1,2008-04-05T20:00:00Z,28.8667,-90.4833,100.0,23.96,11111222 
WAVCIS,ioos:station:WAVCIS:CSI06:1,2008-04-05T21:00:00Z,28.8667,-90.4833,100.0,22.76,11111222 
WAVCIS,ioos:station:WAVCIS:CSI06:1,2008-04-05T22:00:00Z,28.8667,-90.4833,100.0,21.44,11111222 
WAVCIS,ioos:station:WAVCIS:CSI06:1,2008-04-05T23:00:00Z,28.8667,-90.4833,100.0,24.41,11111222 
WAVCIS,ioos:station:WAVCIS:CSI06:1,2008-04-06T00:00:00Z,28.8667,-90.4833,100.0,23.07,11111222 
WAVCIS,ioos:station:WAVCIS:CSI06:1,2008-04-06T01:00:00Z,28.8667,-90.4833,100.0,16.75,11111222 
WAVCIS,ioos:station:WAVCIS:CSI06:1,2008-04-06T02:00:00Z,28.8667,-90.4833,100.0,21.56,11111222 
WAVCIS,ioos:station:WAVCIS:CSI06:1,2008-04-06T03:00:00Z,28.8667,-90.4833,100.0,22.89,11111222 
WAVCIS,ioos:station:WAVCIS:CSI06:1,2008-04-06T04:00:00Z,28.8667,-90.4833,100.0,22.25,11111222 
WAVCIS,ioos:station:WAVCIS:CSI06:1,2008-04-06T05:00:00Z,28.8667,-90.4833,100.0,24.01,11111222 
WAVCIS,ioos:station:WAVCIS:CSI06:1,2008-04-06T06:00:00Z,28.8667,-90.4833,100.0,20.32,11111222 
WAVCIS,ioos:station:WAVCIS:CSI06:1,2008-04-06T07:00:00Z,28.8667,-90.4833,100.0,24.31,11111222 
WAVCIS,ioos:station:WAVCIS:CSI06:1,2008-04-06T08:00:00Z,28.8667,-90.4833,100.0,21.55,11111222 
WAVCIS,ioos:station:WAVCIS:CSI06:1,2008-04-06T09:00:00Z,28.8667,-90.4833,100.0,23.76,11111222 
WAVCIS,ioos:station:WAVCIS:CSI06:1,2008-04-06T10:00:00Z,28.8667,-90.4833,100.0,22.59,11111222 
WAVCIS,ioos:station:WAVCIS:CSI06:1,2008-04-06T11:00:00Z,28.8667,-90.4833,100.0,21.96,11111222 
WAVCIS,ioos:station:WAVCIS:CSI06:1,2008-04-06T12:00:00Z,28.8667,-90.4833,100.0,21.92,11111222 
WAVCIS,ioos:station:WAVCIS:CSI06:1,2008-04-06T13:00:00Z,28.8667,-90.4833,100.0,20.25,11111222 
WAVCIS,ioos:station:WAVCIS:CSI06:1,2008-04-06T14:00:00Z,28.8667,-90.4833,100.0,21.86,11111222 
WAVCIS,ioos:station:WAVCIS:CSI06:1,2008-04-06T15:00:00Z,28.8667,-90.4833,100.0,19.61,11111222 
WAVCIS,ioos:station:WAVCIS:CSI06:1,2008-04-06T16:00:00Z,28.8667,-90.4833,100.0,18.3,11111222 
WAVCIS,ioos:station:WAVCIS:CSI06:1,2008-04-06T17:00:00Z,28.8667,-90.4833,100.0,17.62,11111222 
WAVCIS,ioos:station:WAVCIS:CSI06:1,2008-04-06T18:00:00Z,28.8667,-90.4833,100.0,17.41,11111222 
WAVCIS,ioos:station:WAVCIS:CSI06:1,2008-04-06T19:00:00Z,28.8667,-90.4833,100.0,16.94,11111222 
WAVCIS,ioos:station:WAVCIS:CSI06:1,2008-04-06T20:00:00Z,28.8667,-90.4833,100.0,20.59,11111222 
WAVCIS,ioos:station:WAVCIS:CSI06:1,2008-04-06T21:00:00Z,28.8667,-90.4833,100.0,19.63,11111222 
WAVCIS,ioos:station:WAVCIS:CSI06:1,2008-04-06T22:00:00Z,28.8667,-90.4833,100.0,21.61,11111222 
WAVCIS,ioos:station:WAVCIS:CSI06:1,2008-04-06T23:00:00Z,28.8667,-90.4833,100.0,16.63,11111222 
WAVCIS,ioos:station:WAVCIS:CSI06:1,2008-04-07T00:00:00Z,28.8667,-90.4833,100.0,20.25,11111222 
WAVCIS,ioos:station:WAVCIS:CSI06:1,2008-04-07T01:00:00Z,28.8667,-90.4833,100.0,19.55,11111222 
WAVCIS,ioos:station:WAVCIS:CSI06:1,2008-04-07T02:00:00Z,28.8667,-90.4833,100.0,20.43,11111222 
WAVCIS,ioos:station:WAVCIS:CSI06:1,2008-04-07T03:00:00Z,28.8667,-90.4833,100.0,23.25,11111222 
WAVCIS,ioos:station:WAVCIS:CSI06:1,2008-04-07T04:00:00Z,28.8667,-90.4833,100.0,22.01,11111222 
WAVCIS,ioos:station:WAVCIS:CSI06:1,2008-04-07T05:00:00Z,28.8667,-90.4833,100.0,21.3,11111222 
WAVCIS,ioos:station:WAVCIS:CSI06:1,2008-04-07T06:00:00Z,28.8667,-90.4833,100.0,19.77,11111222 
WAVCIS,ioos:station:WAVCIS:CSI06:1,2008-04-07T07:00:00Z,28.8667,-90.4833,100.0,21.37,11111222 
WAVCIS,ioos:station:WAVCIS:CSI06:1,2008-04-07T08:00:00Z,28.8667,-90.4833,100.0,18.65,11111222 
WAVCIS,ioos:station:WAVCIS:CSI06:1,2008-04-07T09:00:00Z,28.8667,-90.4833,100.0,19.51,11111222 
WAVCIS,ioos:station:WAVCIS:CSI06:1,2008-04-07T10:00:00Z,28.8667,-90.4833,100.0,20.4,11111222 
WAVCIS,ioos:station:WAVCIS:CSI06:1,2008-04-07T11:00:00Z,28.8667,-90.4833,100.0,19.74,11111222 
WAVCIS,ioos:station:WAVCIS:CSI06:1,2008-04-07T12:00:00Z,28.8667,-90.4833,100.0,19.21,11111222 
WAVCIS,ioos:station:WAVCIS:CSI06:1,2008-04-07T13:00:00Z,28.8667,-90.4833,100.0,20.94,11111222 
WAVCIS,ioos:station:WAVCIS:CSI06:1,2008-04-07T14:00:00Z,28.8667,-90.4833,100.0,22.02,11111222 
WAVCIS,ioos:station:WAVCIS:CSI06:1,2008-04-07T15:00:00Z,28.8667,-90.4833,100.0,21.09,11111222 
WAVCIS,ioos:station:WAVCIS:CSI06:1,2008-04-07T16:00:00Z,28.8667,-90.4833,100.0,22.33,11111222 
WAVCIS,ioos:station:WAVCIS:CSI06:1,2008-04-07T17:00:00Z,28.8667,-90.4833,100.0,25.86,11111222 
WAVCIS,ioos:station:WAVCIS:CSI06:1,2008-04-07T18:00:00Z,28.8667,-90.4833,100.0,21.0,11111222 
WAVCIS,ioos:station:WAVCIS:CSI06:1,2008-04-07T19:00:00Z,28.8667,-90.4833,100.0,27.22,11111222 
WAVCIS,ioos:station:WAVCIS:CSI06:1,2008-04-07T20:00:00Z,28.8667,-90.4833,100.0,23.53,11111222 
WAVCIS,ioos:station:WAVCIS:CSI06:1,2008-04-07T21:00:00Z,28.8667,-90.4833,100.0,26.91,11111222 
WAVCIS,ioos:station:WAVCIS:CSI06:1,2008-04-07T22:00:00Z,28.8667,-90.4833,100.0,30.37,11111222 
WAVCIS,ioos:station:WAVCIS:CSI06:1,2008-04-07T23:00:00Z,28.8667,-90.4833,100.0,21.05,11111222 
WAVCIS,ioos:station:WAVCIS:CSI06:1,2008-04-08T00:00:00Z,28.8667,-90.4833,100.0,18.9,11111222 
WAVCIS,ioos:station:WAVCIS:CSI06:1,2008-04-08T01:00:00Z,28.8667,-90.4833,100.0,20.09,11111222 
WAVCIS,ioos:station:WAVCIS:CSI06:1,2008-04-08T02:00:00Z,28.8667,-90.4833,100.0,15.8,11111222 
WAVCIS,ioos:station:WAVCIS:CSI06:1,2008-04-08T03:00:00Z,28.8667,-90.4833,100.0,20.69,11111222 
WAVCIS,ioos:station:WAVCIS:CSI06:1,2008-04-08T04:00:00Z,28.8667,-90.4833,100.0,22.44,11111222 
WAVCIS,ioos:station:WAVCIS:CSI06:1,2008-04-08T05:00:00Z,28.8667,-90.4833,100.0,23.97,11111222 
WAVCIS,ioos:station:WAVCIS:CSI06:1,2008-04-08T06:00:00Z,28.8667,-90.4833,100.0,22.49,11111222 
WAVCIS,ioos:station:WAVCIS:CSI06:1,2008-04-08T07:00:00Z,28.8667,-90.4833,100.0,22.21,11111222 
WAVCIS,ioos:station:WAVCIS:CSI06:1,2008-04-08T08:00:00Z,28.8667,-90.4833,100.0,23.37,11111222 
WAVCIS,ioos:station:WAVCIS:CSI06:1,2008-04-08T09:00:00Z,28.8667,-90.4833,100.0,23.59,11111222 
WAVCIS,ioos:station:WAVCIS:CSI06:1,2008-04-08T10:00:00Z,28.8667,-90.4833,100.0,17.83,11111222 
WAVCIS,ioos:station:WAVCIS:CSI06:1,2008-04-08T11:00:00Z,28.8667,-90.4833,100.0,20.67,11111222 
WAVCIS,ioos:station:WAVCIS:CSI06:1,2008-04-08T12:00:00Z,28.8667,-90.4833,100.0,21.01,11111222 
WAVCIS,ioos:station:WAVCIS:CSI06:1,2008-04-08T13:00:00Z,28.8667,-90.4833,100.0,23.71,11111222 
WAVCIS,ioos:station:WAVCIS:CSI06:1,2008-04-08T14:00:00Z,28.8667,-90.4833,100.0,23.63,11111222 
WAVCIS,ioos:station:WAVCIS:CSI06:1,2008-04-08T15:00:00Z,28.8667,-90.4833,100.0,22.87,11111222 
WAVCIS,ioos:station:WAVCIS:CSI06:1,2008-04-08T16:00:00Z,28.8667,-90.4833,100.0,21.92,11111222 
WAVCIS,ioos:station:WAVCIS:CSI06:1,2008-04-08T17:00:00Z,28.8667,-90.4833,100.0,19.42,11111222 
WAVCIS,ioos:station:WAVCIS:CSI06:1,2008-04-08T18:00:00Z,28.8667,-90.4833,100.0,21.48,11111222 
WAVCIS,ioos:station:WAVCIS:CSI06:1,2008-04-08T19:00:00Z,28.8667,-90.4833,100.0,22.58,11111222 
WAVCIS,ioos:station:WAVCIS:CSI06:1,2008-04-08T20:00:00Z,28.8667,-90.4833,100.0,20.04,11111222 
WAVCIS,ioos:station:WAVCIS:CSI06:1,2008-04-08T21:00:00Z,28.8667,-90.4833,100.0,22.04,11111222 
WAVCIS,ioos:station:WAVCIS:CSI06:1,2008-04-08T22:00:00Z,28.8667,-90.4833,100.0,21.06,11111222 
WAVCIS,ioos:station:WAVCIS:CSI06:1,2008-04-08T23:00:00Z,28.8667,-90.4833,100.0,21.77,11111222 
WAVCIS,ioos:station:WAVCIS:CSI06:1,2008-04-09T00:00:00Z,28.8667,-90.4833,100.0,21.91,11111222 
WAVCIS,ioos:station:WAVCIS:CSI06:1,2008-04-09T01:00:00Z,28.8667,-90.4833,100.0,22.36,11111222 
WAVCIS,ioos:station:WAVCIS:CSI06:1,2008-04-09T02:00:00Z,28.8667,-90.4833,100.0,22.17,11111222 
WAVCIS,ioos:station:WAVCIS:CSI06:1,2008-04-09T03:00:00Z,28.8667,-90.4833,100.0,22.36,11111222 
WAVCIS,ioos:station:WAVCIS:CSI06:1,2008-04-09T04:00:00Z,28.8667,-90.4833,100.0,23.36,11111222 
WAVCIS,ioos:station:WAVCIS:CSI06:1,2008-04-09T05:00:00Z,28.8667,-90.4833,100.0,22.22,11111222 
WAVCIS,ioos:station:WAVCIS:CSI06:1,2008-04-09T06:00:00Z,28.8667,-90.4833,100.0,17.09,11111222 
WAVCIS,ioos:station:WAVCIS:CSI06:1,2008-04-09T07:00:00Z,28.8667,-90.4833,100.0,17.42,11111222 
WAVCIS,ioos:station:WAVCIS:CSI06:1,2008-04-09T08:00:00Z,28.8667,-90.4833,100.0,18.1,11111222 
WAVCIS,ioos:station:WAVCIS:CSI06:1,2008-04-09T09:00:00Z,28.8667,-90.4833,100.0,18.53,11111222 
WAVCIS,ioos:station:WAVCIS:CSI06:1,2008-04-09T10:00:00Z,28.8667,-90.4833,100.0,19.47,11111222 
WAVCIS,ioos:station:WAVCIS:CSI06:1,2008-04-09T11:00:00Z,28.8667,-90.4833,100.0,22.2,11111222 
WAVCIS,ioos:station:WAVCIS:CSI06:1,2008-04-09T12:00:00Z,28.8667,-90.4833,100.0,18.14,11111222 
WAVCIS,ioos:station:WAVCIS:CSI06:1,2008-04-09T13:00:00Z,28.8667,-90.4833,100.0,15.63,11111222 
WAVCIS,ioos:station:WAVCIS:CSI06:1,2008-04-09T14:00:00Z,28.8667,-90.4833,100.0,7.26,11133222 
WAVCIS,ioos:station:WAVCIS:CSI06:1,2008-04-09T15:00:00Z,28.8667,-90.4833,100.0,11.97,11111222 
WAVCIS,ioos:station:WAVCIS:CSI06:1,2008-04-09T16:00:00Z,28.8667,-90.4833,100.0,14.82,11111222 
WAVCIS,ioos:station:WAVCIS:CSI06:1,2008-04-09T17:00:00Z,28.8667,-90.4833,100.0,16.55,11111222 
WAVCIS,ioos:station:WAVCIS:CSI06:1,2008-04-09T18:00:00Z,28.8667,-90.4833,100.0,15.43,11111222 
WAVCIS,ioos:station:WAVCIS:CSI06:1,2008-04-09T19:00:00Z,28.8667,-90.4833,100.0,12.68,11111222 
WAVCIS,ioos:station:WAVCIS:CSI06:1,2008-04-09T20:00:00Z,28.8667,-90.4833,100.0,14.73,11111222 
WAVCIS,ioos:station:WAVCIS:CSI06:1,2008-04-09T21:00:00Z,28.8667,-90.4833,100.0,14.52,11111222 
WAVCIS,ioos:station:WAVCIS:CSI06:1,2008-04-09T22:00:00Z,28.8667,-90.4833,100.0,12.23,11111222 
WAVCIS,ioos:station:WAVCIS:CSI06:1,2008-04-09T23:00:00Z,28.8667,-90.4833,100.0,17.7,11111222 
WAVCIS,ioos:station:WAVCIS:CSI06:1,2008-04-10T00:00:00Z,28.8667,-90.4833,100.0,25.35,11111222 
WAVCIS,ioos:station:WAVCIS:CSI06:1,2008-04-10T01:00:00Z,28.8667,-90.4833,100.0,21.06,11111222 
WAVCIS,ioos:station:WAVCIS:CSI06:1,2008-04-10T02:00:00Z,28.8667,-90.4833,100.0,17.83,11111222 
WAVCIS,ioos:station:WAVCIS:CSI06:1,2008-04-10T03:00:00Z,28.8667,-90.4833,100.0,15.54,11111222 
WAVCIS,ioos:station:WAVCIS:CSI06:1,2008-04-10T04:00:00Z,28.8667,-90.4833,100.0,16.01,11111222 
WAVCIS,ioos:station:WAVCIS:CSI06:1,2008-04-10T05:00:00Z,28.8667,-90.4833,100.0,20.66,11111222 
WAVCIS,ioos:station:WAVCIS:CSI06:1,2008-04-10T06:00:00Z,28.8667,-90.4833,100.0,16.25,11111222 
WAVCIS,ioos:station:WAVCIS:CSI06:1,2008-04-10T07:00:00Z,28.8667,-90.4833,100.0,15.45,11111222 
WAVCIS,ioos:station:WAVCIS:CSI06:1,2008-04-10T08:00:00Z,28.8667,-90.4833,100.0,16.84,11111222 
WAVCIS,ioos:station:WAVCIS:CSI06:1,2008-04-10T09:00:00Z,28.8667,-90.4833,100.0,17.77,11111222 
WAVCIS,ioos:station:WAVCIS:CSI06:1,2008-04-10T10:00:00Z,28.8667,-90.4833,100.0,24.9,11111222 
WAVCIS,ioos:station:WAVCIS:CSI06:1,2008-04-10T11:00:00Z,28.8667,-90.4833,100.0,23.51,11111222 
WAVCIS,ioos:station:WAVCIS:CSI06:1,2008-04-10T12:00:00Z,28.8667,-90.4833,100.0,20.93,11111222 
WAVCIS,ioos:station:WAVCIS:CSI06:1,2008-04-10T13:00:00Z,28.8667,-90.4833,100.0,15.49,11111222 
WAVCIS,ioos:station:WAVCIS:CSI06:1,2008-04-10T14:00:00Z,28.8667,-90.4833,100.0,18.28,11111222 
WAVCIS,ioos:station:WAVCIS:CSI06:1,2008-04-10T15:00:00Z,28.8667,-90.4833,100.0,19.87,11111222 
WAVCIS,ioos:station:WAVCIS:CSI06:1,2008-04-10T16:00:00Z,28.8667,-90.4833,100.0,21.77,11111222 
WAVCIS,ioos:station:WAVCIS:CSI06:1,2008-04-10T17:00:00Z,28.8667,-90.4833,100.0,17.76,11111222 
WAVCIS,ioos:station:WAVCIS:CSI06:1,2008-04-10T18:00:00Z,28.8667,-90.4833,100.0,18.03,11111222 
WAVCIS,ioos:station:WAVCIS:CSI06:1,2008-04-10T19:00:00Z,28.8667,-90.4833,100.0,13.89,11111222 
WAVCIS,ioos:station:WAVCIS:CSI06:1,2008-04-10T20:00:00Z,28.8667,-90.4833,100.0,17.17,11111222 
WAVCIS,ioos:station:WAVCIS:CSI06:1,2008-04-10T21:00:00Z,28.8667,-90.4833,100.0,18.99,11111222 
WAVCIS,ioos:station:WAVCIS:CSI06:1,2008-04-10T22:00:00Z,28.8667,-90.4833,100.0,19.63,11111222 
WAVCIS,ioos:station:WAVCIS:CSI06:1,2008-04-10T23:00:00Z,28.8667,-90.4833,100.0,16.92,11111222 
WAVCIS,ioos:station:WAVCIS:CSI06:1,2008-04-11T00:00:00Z,28.8667,-90.4833,100.0,11.84,11111222 
WAVCIS,ioos:station:WAVCIS:CSI06:1,2008-04-11T01:00:00Z,28.8667,-90.4833,100.0,17.73,11111222 
WAVCIS,ioos:station:WAVCIS:CSI06:1,2008-04-11T02:00:00Z,28.8667,-90.4833,100.0,11.39,11111222 
WAVCIS,ioos:station:WAVCIS:CSI06:1,2008-04-11T03:00:00Z,28.8667,-90.4833,100.0,15.08,11111222 
WAVCIS,ioos:station:WAVCIS:CSI06:1,2008-04-11T04:00:00Z,28.8667,-90.4833,100.0,16.07,11111222 
WAVCIS,ioos:station:WAVCIS:CSI06:1,2008-04-11T05:00:00Z,28.8667,-90.4833,100.0,15.77,11111222 
WAVCIS,ioos:station:WAVCIS:CSI06:1,2008-04-11T06:00:00Z,28.8667,-90.4833,100.0,17.65,11111222 
WAVCIS,ioos:station:WAVCIS:CSI06:1,2008-04-11T07:00:00Z,28.8667,-90.4833,100.0,16.33,11111222 
WAVCIS,ioos:station:WAVCIS:CSI06:1,2008-04-11T08:00:00Z,28.8667,-90.4833,100.0,16.13,11111222 
WAVCIS,ioos:station:WAVCIS:CSI06:1,2008-04-11T09:00:00Z,28.8667,-90.4833,100.0,17.83,11111222 
WAVCIS,ioos:station:WAVCIS:CSI06:1,2008-04-11T10:00:00Z,28.8667,-90.4833,100.0,16.7,11111222 
WAVCIS,ioos:station:WAVCIS:CSI06:1,2008-04-11T11:00:00Z,28.8667,-90.4833,100.0,16.97,11111222 
WAVCIS,ioos:station:WAVCIS:CSI06:1,2008-04-11T12:00:00Z,28.8667,-90.4833,100.0,17.49,11111222 
WAVCIS,ioos:station:WAVCIS:CSI06:1,2008-04-11T13:00:00Z,28.8667,-90.4833,100.0,17.21,11111222 
WAVCIS,ioos:station:WAVCIS:CSI06:1,2008-04-11T14:00:00Z,28.8667,-90.4833,100.0,17.69,11111222 
WAVCIS,ioos:station:WAVCIS:CSI06:1,2008-04-11T15:00:00Z,28.8667,-90.4833,100.0,17.28,11111222 
WAVCIS,ioos:station:WAVCIS:CSI06:1,2008-04-11T16:00:00Z,28.8667,-90.4833,100.0,16.89,11111222 
WAVCIS,ioos:station:WAVCIS:CSI06:1,2008-04-11T17:00:00Z,28.8667,-90.4833,100.0,15.58,11111222 
WAVCIS,ioos:station:WAVCIS:CSI06:1,2008-04-11T18:00:00Z,28.8667,-90.4833,100.0,14.99,11111222 
WAVCIS,ioos:station:WAVCIS:CSI06:1,2008-04-11T19:00:00Z,28.8667,-90.4833,100.0,17.48,11111222 
WAVCIS,ioos:station:WAVCIS:CSI06:1,2008-04-11T20:00:00Z,28.8667,-90.4833,100.0,16.85,11111222 
WAVCIS,ioos:station:WAVCIS:CSI06:1,2008-04-11T21:00:00Z,28.8667,-90.4833,100.0,16.76,11111222 
WAVCIS,ioos:station:WAVCIS:CSI06:1,2008-04-11T22:00:00Z,28.8667,-90.4833,100.0,15.92,11111222 
WAVCIS,ioos:station:WAVCIS:CSI06:1,2008-04-11T23:00:00Z,28.8667,-90.4833,100.0,17.31,11111222 
WAVCIS,ioos:station:WAVCIS:CSI06:1,2008-04-12T00:00:00Z,28.8667,-90.4833,100.0,16.58,11111222 
WAVCIS,ioos:station:WAVCIS:CSI06:1,2008-04-12T01:00:00Z,28.8667,-90.4833,100.0,18.34,11111222 
WAVCIS,ioos:station:WAVCIS:CSI06:1,2008-04-12T02:00:00Z,28.8667,-90.4833,100.0,18.33,11111222 
WAVCIS,ioos:station:WAVCIS:CSI06:1,2008-04-12T03:00:00Z,28.8667,-90.4833,100.0,17.84,11111222 
WAVCIS,ioos:station:WAVCIS:CSI06:1,2008-04-12T04:00:00Z,28.8667,-90.4833,100.0,13.38,11111222 
WAVCIS,ioos:station:WAVCIS:CSI06:1,2008-04-12T05:00:00Z,28.8667,-90.4833,100.0,15.08,11111222 
WAVCIS,ioos:station:WAVCIS:CSI06:1,2008-04-12T06:00:00Z,28.8667,-90.4833,100.0,16.05,11111222 
WAVCIS,ioos:station:WAVCIS:CSI06:1,2008-04-12T07:00:00Z,28.8667,-90.4833,100.0,14.39,11111222 
WAVCIS,ioos:station:WAVCIS:CSI06:1,2008-04-12T08:00:00Z,28.8667,-90.4833,100.0,15.98,11111222 